Луангпхабанг

Лаос     19°53′13″N   102°08′07″E
темп.,
°C
ветер,
м/с
пор.,
м/с
влажн.,
%
обл.,
%
осадки,
мм/ч
давл.,
гПа
погр.,
м
10 августа, ср
ср1001:00+20ююв019922 0.1 100515
04:00+20юв0010043 3.0 100423
07:00+21юз019951 3.2 1005111
10:00+25з127670 0.1 1005670
13:00+32з114833 0.1 10021420
16:00+33з1141100 0.0 9991845
19:00+26ююз1174100 0.0 100120
22:00+23ю1189100 0.4 100422
11 августа, чт
чт1101:00+21ююв0099100 2.9 100320
04:00+21св12100100 6.7 100394
07:00+21юв00100100 9.8 100442
10:00+22ююз02100100 0.4 1005141
13:00+25ююз1381100 0.7 1003679
16:00+23ю1195100 1.4 100132
19:00+22ю11100100 7.7 100357
22:00+21ю12100100 4.1 100481
12 августа, пт
пт1201:00+21ю11100100 10.9 100373
04:00+21ююв11100100 2.2 100253
07:00+21вюв0010098 3.1 100443
10:00+21вюв01100100 0.6 100552
13:00+22ю1299100 1.5 1004133
16:00+21ююв01100100 2.9 100453
19:00+21ю00100100 3.9 100624
22:00+21ююз01100100 1.9 100836
13 августа, сб
сб1301:00+20ю00100100 2.1 100732
04:00+20ю00100100 0.1 100734
07:00+21юв0010079 0.1 100869
10:00+23зюз119768 1.6 1008480
13:00+25юз129056 5.4 1006700
16:00+24юз1395100 2.3 1005313
19:00+22ююз119956 3.8 100612
22:00+22ююз1199100 0.3 100940
14 августа, вс
вс1401:00+21ююз1110098 1.2 100845
04:00+21ю11100100 0.0 100742
07:00+21ю0110052 0.0 100895
10:00+26юз127768 0.1 1008694
13:00+29зсз1359100 0.1 10051289
16:00+29юз136172 0.1 1003841
19:00+24ююз118997 0.3 100518
22:00+23ююз1193100 0.0 100729